Location: Newark
(48.1500°N, 13.1167°E)
Time: 10:56:05
(UTC+00:00)

Tiangong - Visible Passes

Search period start: 29 November 2022 00:00
Search period end: 09 December 2022 00:00
Orbit: 385 x 393 km, 41.5° (Epoch: 29 November)

Date Brightness Start Highest point End Pass type
(mag) Time Alt. Az. Time Alt. Az. Time Alt. Az.
30 Nov 0.5 17:06:33 10° S 17:07:32 11° SSE 17:07:32 11° SSE visible
01 Dec 0.5 17:43:29 10° SW 17:44:30 15° SSW 17:44:30 15° SSW visible
02 Dec 0.1 16:45:51 10° SSW 16:47:54 16° SSE 16:49:04 13° SE visible
03 Dec -0.2 17:23:34 10° SW 17:25:54 23° S 17:25:54 23° S visible
04 Dec 0.0 16:25:37 10° SW 16:28:04 20° SSE 16:30:23 11° ESE visible
04 Dec 0.8 18:01:50 10° WSW 18:02:41 15° SW 18:02:41 15° SW visible
05 Dec -0.4 17:03:38 10° WSW 17:06:18 24° S 17:07:09 21° SSE visible
06 Dec -0.1 16:05:29 10° SW 16:08:05 23° S 16:10:43 10° ESE visible
06 Dec 0.2 17:42:02 10° WSW 17:43:55 19° SSW 17:43:55 19° SSW visible
07 Dec -0.1 16:43:40 10° WSW 16:46:16 23° S 16:48:25 13° SE visible
08 Dec 0.4 17:22:16 10° WSW 17:24:20 16° SSW 17:25:16 14° S visible
